Simultaneous Nadir Overpasses (SNOs) Predictions

Prediction of SNOs between AURA and NPP Satellite Orbit:

Table of predicted SNOs for the next 14.0 days since TLE Epoch: 1/30/2015
Index Date (AURA) Time (AURA) Lat,Lon (AURA) SZA (AURA ) Date (NPP) Time (NPP) Lat,Lon (NPP) SZA (NPP ) Distance(km) Time Diff (sec)
1 02/01/2015 23:35:28 78.15, 75.56 111.46 02/01/2015 23:34:56 78.15, 75.63 111.47 1.56 32
2 02/02/2015 00:24:43 -78.67,-114.14 69.22 02/02/2015 00:25:28 -78.68,-114.07 69.27 1.54 45
3 02/04/2015 15:52:06 78.30,-167.86 110.51 02/04/2015 15:51:41 78.31,-167.74 110.50 2.96 25
4 02/04/2015 16:41:22 -78.78, 2.30 70.13 02/04/2015 16:42:14 -78.79, 2.42 70.19 2.77 52
5 02/07/2015 08:08:56 78.15, -52.82 109.92 02/07/2015 08:08:34 78.14, -52.85 109.94 0.93 22
6 02/07/2015
